CAPE
447 660 936 1000 1026 1063 1104 1170 1294 1284 896 1115 1317 1425 1646 1870 925 852 867 1045 876 484 354 267 188 3 2 0 0 0 0 0 0 0 0 0 0 0 0 0 0 0 0
633 662 778 963 1111 1124 1156 1210 1052 1459 1495 1345 1221 1547 1752 1903 1129 1083 1098 1292 746 562 497 168 21 0 0 0 0 0 0 0 1 0 0 0 0 0 0 0 0 0 0
854 848 894 1008 1128 1288 1390 1426 1047 1169 1422 1738 1706 1867 1890 2041 1488 1060 928 593 740 854 496 171 32 0 0 0 0 0 0 0 0 0 0 0 0 0 0 0 0 0 0
742 915 977 1075 1243 1374 1500 1494 1388 1330 1375 1379 1714 1893 1829 2085 1230 1078 413 679 725 663 518 433 52 0 0 0 0 0 0 0 0 0 0 0 0 0 0 0 0 0 1
637 903 1036 1123 1207 1336 1535 1670 1769 1795 1723 1787 1830 1849 1401 327 90 646 522 656 792 723 51 0 0 0 0 0 0 0 0 0 0 0 0 0 0 0 0 0 0 0 0
467 719 949 1155 1251 1357 1495 1988 2201 2284 2280 2487 2495 1880 658 758 693 408 438 803 550 4 0 0 0 0 0 0 0 0 0 0 0 0 0 0 0 0 0 0 0 0 1
222 493 894 1198 1401 1612 1655 2117 2530 2752 2796 2837 2329 996 1003 558 229 497 378 386 3 0 0 0 0 0 0 0 0 0 0 0 0 0 0 0 0 0 0 0 0 0 0
75 290 728 1147 1451 1909 2086 2317 2698 2994 2721 2167 1366 1170 1096 494 58 7 48 8 0 0 0 0 0 0 0 0 0 0 0 0 0 0 0 0 0 0 0 0 0 0 0
80 185 795 1338 1766 2325 2583 2651 3051 2596 1716 1381 1187 1120 374 1 0 0 0 0 0 0 0 0 0 0 0 0 0 0 0 0 0 0 0 0 0 0 0 0 0 1 0
146 394 1357 1893 2342 2661 2917 2866 1982 1630 1342 1005 541 6 0 0 0 0 0 0 0 0 0 0 0 0 0 0 0 0 0 0 0 0 0 0 0 0 0 0 0 4 4
998 1549 2089 2446 2715 2763 1943 1583 1477 1255 343 1 0 0 0 0 0 0 0 0 0 0 0 0 0 0 0 0 0 0 0 0 0 0 0 0 0 0 0 0 0 1 3
2330 2258 2272 2421 2069 1705 1572 1415 1061 58 0 1 0 0 0 0 0 0 0 0 0 0 0 0 0 0 0 0 0 0 0 0 0 0 0 0 0 0 0 0 0 0 0
1721 1779 1716 1663 1628 1711 1645 967 158 1 0 0 0 0 0 0 0 0 0 0 0 0 0 0 0 0 0 0 0 0 0 0 0 0 0 0 0 0 0 0 0 0 0
1426 1454 1183 732 413 444 500 354 52 2 2 0 0 0 0 0 0 0 0 0 0 0 0 0 0 0 0 0 0 0 0 0 0 0 0 0 0 0 0 0 0 0 0
492 101 0 0 0 0 0 0 1 0 0 0 0 0 0 0 0 0 0 0 0 0 0 0 0 0 0 0 0 0 0 0 0 0 0 0 0 0 0 0 0 0 0
155 1 0 0 0 0 0 0 0 1 1 0 0 0 0 0 0 0 0 0 0 0 0 0 0 0 0 0 0 0 0 0 0 0 0 0 0 0 0 0 0 0 0
14 0 0 0 0 0 0 0 0 0 0 2 0 0 0 0 0 0 0 0 0 0 0 0 0 0 0 0 0 0 0 0 0 0 0 0 0 0 0 0 0 0 0
21 0 0 0 0 0 0 0 0 0 0 0 0 0 0 0 0 0 0 0 0 0 0 0 0 0 0 0 0 0 0 0 0 0 0 0 0 0 0 0 0 0 0
302 20 0 0 0 0 0 0 0 0 0 0 0 0 0 0 0 0 0 0 0 0 0 0 0 0 0 0 0 0 0 0 0 0 0 0 0 0 0 0 0 0 0
24 0 0 0 0 0 0 0 0 0 0 0 0 0 0 0 0 0 0 0 0 0 0 0 0 0 0 0 0 0 0 0 0 0 0 0 0 0 0 0 0 0 0
1 0 0 0 0 0 0 0 0 0 0 0 0 0 0 0 0 0 0 0 0 0 0 0 0 0 0 0 0 0 0 0 0 0 0 0 0 0 0 0 0 0 0
1 1 0 0 0 0 0 0 0 0 0 0 0 0 0 0 0 0 0 0 0 0 0 0 0 0 0 0 0 0 0 0 0 0 0 0 0 0 0 0 0 0 0
0 0 1 0 0 0 0 0 0 0 0 0 0 0 0 0 0 0 0 0 0 0 0 0 0 0 0 0 0 0 0 0 0 0 0 0 0 0 0 0 0 0 0
0 2 0 0 0 0 0 0 0 0 0 0 0 0 0 0 0 0 0 0 0 0 0 0 0 0 0 0 0 0 0 0 0 0 0 0 0 0 0 0 0 0 0
0 0 0 0 0 0 0 0 0 0 0 0 0 0 0 0 0 0 0 0 0 0 0 0 0 0 0 0 0 0 0 0 0 0 0 0 0 0 0 0 0 0 0
0 0 0 0 0 0 0 0 0 0 0 0 0 0 0 0 0 0 0 0 0 0 0 0 0 0 0 0 0 0 0 0 0 0 0 0 0 0 0 0 0 0 0
CIN
-739 -682 -588 -565 -550 -547 -543 -538 -515 -499 -593 -503 -380 -304 -229 -191 -397 -352 -353 -270 -229 -268 -246 -214 -149 -159 -79 -0 -0 -0 -0 -0 -0 -0 -0 -0 -0 -0 -0 -0 -0 -0 -0
-769 -758 -715 -629 -590 -582 -586 -571 -604 -498 -486 -460 -424 -292 -214 -204 -366 -328 -258 -162 -248 -264 -213 -217 -288 -0 -0 -0 -0 -19 -0 -0 -0 -0 -0 -0 -0 -0 -0 -0 -0 -0 -0
-788 -793 -754 -693 -641 -624 -596 -575 -656 -607 -518 -379 -326 -219 -205 -173 -253 -228 -241 -328 -279 -205 -202 -231 -263 -0 -0 -0 -0 -0 -0 -0 -0 -0 -0 -0 -0 -0 -0 -0 -0 -0 -0
-880 -817 -787 -768 -736 -684 -615 -595 -608 -605 -525 -491 -346 -228 -211 -133 -169 -210 -377 -324 -278 -177 -111 -95 -143 -0 -0 -0 -0 -0 -0 -0 -0 -0 -0 -0 -0 -0 -0 -0 -0 -0 -0
-968 -888 -849 -792 -738 -670 -615 -573 -534 -458 -444 -405 -339 -223 -235 -199 -77 -286 -280 -290 -199 -106 -64 -0 -0 -0 -0 -0 -0 -0 -0 -0 -0 -0 -0 -0 -0 -0 -0 -0 -0 -0 -0
-1014 -1006 -880 -811 -765 -732 -661 -521 -434 -366 -320 -269 -205 -222 -388 -342 -441 -300 -274 -194 -175 -131 -0 -0 -0 -0 -0 -0 -0 -0 -0 -0 -0 -0 -0 -0 -0 -0 -0 -0 -0 -0 -0
-1236 -1120 -982 -871 -765 -679 -636 -492 -374 -295 -225 -198 -211 -477 -390 -444 -566 -379 -340 -277 -215 -0 -0 -0 -0 -0 -0 -0 -0 -0 -0 -0 -0 -0 -0 -0 -0 -0 -0 -0 -0 -0 -0
-1213 -1238 -1065 -908 -768 -595 -501 -392 -268 -208 -221 -257 -394 -384 -365 -526 -601 -588 -549 -240 -0 -0 -0 -0 -0 -0 -0 -0 -0 -0 -0 -0 -0 -0 -0 -0 -0 -0 -0 -0 -0 -0 -0
-1347 -1273 -1011 -807 -642 -474 -363 -272 -155 -200 -360 -392 -403 -387 -598 -0 -0 -0 -0 -0 -0 -0 -0 -0 -0 -0 -0 -0 -0 -0 -0 -0 -0 -0 -0 -0 -0 -0 -0 -0 -0 -0 -0
-1308 -1164 -817 -654 -506 -383 -261 -186 -295 -361 -394 -443 -562 -355 -0 -0 -0 -0 -0 -0 -0 -0 -0 -0 -0 -0 -0 -0 -0 -0 -0 -0 -0 -0 -0 -0 -0 -0 -0 -0 -0 -0 -0
-954 -782 -630 -504 -391 -308 -387 -404 -374 -391 -647 -0 -0 -0 -0 -0 -0 -0 -0 -0 -0 -0 -0 -0 -0 -0 -0 -0 -0 -0 -0 -0 -0 -0 -0 -0 -0 -0 -0 -0 -0 -0 -0
-532 -507 -459 -397 -421 -447 -406 -382 -432 -544 -0 -0 -0 -0 -0 -0 -0 -0 -0 -0 -0 -0 -0 -0 -0 -0 -0 -0 -0 -0 -0 -0 -0 -0 -0 -0 -0 -0 -0 -0 -0 -0 -0
-548 -475 -438 -424 -409 -348 -329 -431 -674 -0 -0 -0 -0 -0 -0 -0 -0 -0 -0 -0 -0 -0 -0 -0 -0 -0 -0 -0 -0 -0 -0 -0 -0 -0 -0 -0 -0 -0 -0 -0 -0 -0 -0
-520 -473 -499 -585 -674 -624 -563 -554 -676 -0 -0 -0 -0 -0 -0 -0 -0 -0 -0 -0 -0 -0 -0 -0 -0 -0 -0 -0 -0 -0 -0 -0 -0 -0 -0 -0 -0 -0 -0 -0 -0 -0 -0
-708 -785 -0 -0 -0 -0 -0 -0 -0 -0 -0 -0 -0 -0 -0 -0 -0 -0 -0 -0 -0 -0 -0 -0 -0 -0 -0 -0 -0 -0 -0 -0 -0 -0 -0 -0 -0 -0 -0 -0 -0 -0 -0
-822 -0 -0 -0 -0 -0 -0 -0 -0 -0 -0 -0 -0 -0 -0 -0 -0 -0 -0 -0 -0 -0 -0 -0 -0 -0 -0 -0 -0 -0 -0 -0 -0 -0 -0 -0 -0 -0 -0 -0 -0 -0 -0
-928 -0 -0 -0 -0 -0 -0 -0 -0 -0 -0 -0 -0 -0 -0 -0 -0 -0 -0 -0 -0 -0 -0 -0 -0 -0 -0 -0 -0 -0 -0 -0 -0 -0 -0 -0 -0 -0 -0 -0 -0 -0 -0
-634 -0 -0 -0 -0 -0 -0 -0 -0 -0 -0 -0 -0 -0 -0 -0 -0 -0 -0 -0 -0 -0 -0 -0 -0 -0 -0 -0 -0 -0 -0 -0 -0 -0 -0 -0 -0 -0 -0 -0 -0 -0 -0
-576 -491 -0 -0 -0 -0 -0 -0 -0 -0 -0 -0 -0 -0 -0 -0 -0 -0 -0 -0 -0 -0 -0 -0 -0 -0 -0 -0 -0 -0 -0 -0 -0 -0 -0 -0 -0 -0 -0 -0 -0 -0 -0
-144 -0 -0 -0 -0 -0 -0 -0 -0 -0 -0 -0 -0 -0 -0 -0 -0 -0 -0 -0 -0 -0 -0 -0 -0 -0 -0 -0 -0 -0 -0 -0 -0 -0 -0 -0 -0 -0 -0 -0 -0 -0 -0
-0 -0 -0 -0 -0 -0 -0 -0 -0 -0 -0 -0 -0 -0 -0 -0 -0 -0 -0 -0 -0 -0 -0 -0 -0 -0 -0 -0 -0 -0 -0 -0 -0 -0 -0 -0 -0 -0 -0 -0 -0 -0 -0
-0 -0 -0 -0 -0 -0 -0 -0 -0 -0 -0 -0 -0 -0 -0 -0 -0 -0 -0 -0 -0 -0 -0 -0 -0 -0 -0 -0 -0 -0 -0 -0 -0 -0 -0 -0 -0 -0 -0 -0 -0 -0 -0
-0 -0 -0 -0 -0 -0 -0 -0 -0 -0 -0 -0 -0 -0 -0 -0 -0 -0 -0 -0 -0 -0 -0 -0 -0 -0 -0 -0 -0 -0 -0 -0 -0 -0 -0 -0 -0 -0 -0 -0 -0 -0 -0
-0 -608 -0 -0 -0 -0 -0 -0 -0 -0 -0 -0 -0 -0 -0 -0 -0 -0 -0 -0 -0 -0 -0 -0 -0 -0 -0 -0 -0 -0 -0 -0 -0 -0 -0 -0 -0 -0 -0 -0 -0 -0 -0
-0 -0 -0 -0 -0 -0 -0 -0 -0 -0 -0 -0 -0 -0 -0 -0 -0 -0 -0 -0 -0 -0 -0 -0 -0 -0 -0 -0 -0 -0 -0 -0 -0 -0 -0 -0 -0 -0 -0 -0 -0 -0 -0
-0 -0 -0 -0 -0 -0 -0 -0 -0 -0 -0 -0 -0 -0 -0 -0 -0 -0 -0 -0 -0 -0 -0 -0 -0 -0 -0 -0 -0 -0 -0 -0 -0 -0 -0 -0 -0 -0 -0 -0 -0 -0 -0
Wind_Speed
16 16 15 14 13 12 12 11 10 8 7 9 7 8 8 8 10 9 8 7 3 4 4 6 3 4 4 3 2 2 5 4 6 5 3 6 7 10 11 10 11 12 13
17 15 15 13 12 12 13 12 7 10 9 9 9 9 9 11 10 11 8 7 4 4 4 2 3 4 2 3 3 5 4 4 4 10 5 7 8 11 11 12 11 11 13
14 14 13 12 12 14 13 10 8 9 9 7 9 10 13 10 11 8 5 4 4 5 3 5 5 4 4 2 4 3 2 2 2 4 6 4 5 8 10 9 11 13 11
13 13 14 15 16 14 12 10 11 11 8 9 10 11 11 10 8 8 6 6 7 5 5 3 3 4 4 4 2 2 3 4 3 4 5 6 4 7 7 10 13 11 14
11 12 14 13 11 10 10 11 11 9 8 9 9 7 7 4 3 7 6 7 6 5 4 3 3 3 5 3 1 1 3 3 3 4 4 4 7 10 10 9 10 12 15
12 14 12 11 11 13 12 12 10 9 9 9 6 5 6 5 11 5 6 7 6 7 5 4 7 10 8 7 3 2 1 3 3 3 3 6 7 9 7 10 10 12 14
12 11 11 11 11 11 10 11 11 10 8 6 6 8 6 5 13 11 9 6 7 6 6 7 7 5 5 3 4 5 5 7 4 3 4 5 7 7 9 12 12 11 12
11 10 9 9 9 8 9 9 8 7 8 6 8 8 8 6 14 14 13 8 7 6 6 7 7 5 3 4 3 5 6 5 6 5 5 8 8 9 8 7 10 10 10
7 6 6 8 8 9 10 9 6 6 7 8 8 10 10 8 17 16 12 8 9 8 7 7 6 5 5 5 6 6 6 6 8 10 8 8 10 13 10 7 9 11 11
5 6 8 9 8 8 8 8 4 8 9 7 8 9 12 12 13 15 11 7 8 6 6 6 7 6 7 8 5 4 6 6 8 10 9 10 10 10 12 4 6 9 9
7 8 8 8 8 8 7 8 9 10 10 9 12 8 9 11 8 14 12 7 7 6 5 4 3 8 8 6 5 5 5 7 8 6 7 7 8 8 8 7 7 6 8
8 8 8 8 7 8 11 9 11 12 12 10 11 9 6 7 9 10 11 12 7 7 5 4 4 9 9 8 6 7 8 6 5 6 7 8 7 7 8 7 7 7 6
10 9 8 8 8 9 12 11 10 9 8 10 9 9 5 5 5 10 14 12 9 6 5 6 11 10 8 7 12 11 8 6 6 6 7 6 5 6 7 6 8 7 8
13 11 9 9 9 9 7 8 9 8 8 8 9 8 6 5 4 4 7 8 10 9 10 7 8 10 9 6 5 6 5 5 5 5 5 5 5 5 6 6 6 7 7
12 10 9 8 9 10 9 6 5 4 7 10 8 9 9 6 5 7 9 6 6 8 8 5 4 3 4 5 4 5 5 6 7 6 6 7 6 6 6 6 7 6 8
11 8 7 8 7 8 8 8 18 10 10 9 12 11 3 8 13 11 13 13 14 10 4 4 3 3 4 3 4 4 5 7 6 6 5 6 6 7 7 7 6 8 8
13 11 8 8 7 7 7 8 9 9 19 15 10 8 8 15 15 15 16 14 9 7 5 4 4 4 3 3 3 3 3 4 4 5 5 6 6 6 7 7 7 7 8
12 12 9 7 7 7 7 7 7 9 7 5 11 6 12 16 16 15 15 10 6 6 4 5 4 3 2 2 2 2 3 4 5 5 5 6 6 6 6 6 7 7 8
11 8 8 7 6 7 7 6 6 7 8 7 6 8 8 14 13 9 8 6 7 6 5 5 4 3 2 3 3 2 4 4 4 4 5 5 6 5 5 5 6 8 8
8 13 9 8 7 7 6 7 7 7 7 7 8 8 8 7 6 4 4 6 6 6 5 5 4 3 3 4 3 3 3 4 4 4 4 4 5 5 5 5 6 7 7
8 8 12 8 7 7 7 7 7 7 7 7 7 7 7 8 7 7 7 6 6 6 6 5 4 3 3 3 3 3 3 3 3 4 4 4 5 5 4 5 5 7 7
8 8 7 8 7 7 6 6 7 8 8 9 8 4 10 6 6 7 7 6 5 5 5 5 4 3 3 3 2 3 3 2 2 3 3 3 4 4 4 5 6 7 7
9 8 7 7 7 9 7 7 7 8 8 8 8 7 6 7 7 7 7 7 6 6 5 5 5 4 3 3 3 2 3 2 1 2 3 3 4 4 4 5 6 7 7
9 10 9 8 8 8 7 8 7 8 9 9 8 8 8 7 8 8 8 7 7 6 5 5 4 5 5 4 3 3 1 1 0 1 2 3 4 5 6 7 7 9 8
8 9 9 9 9 8 8 8 8 9 9 9 9 8 8 8 8 8 8 7 7 7 6 5 4 6 6 6 5 4 2 1 1 1 2 4 6 7 7 7 7 8 9
8 9 8 8 9 9 9 9 9 9 9 9 9 9 9 9 9 9 8 8 7 6 7 5 5 6 7 5 4 2 2 1 1 1 2 4 5 6 7 9 10 7 8
Wind_Direction
204 206 211 213 214 218 224 226 217 209 190 204 184 187 202 204 186 188 192 223 163 194 192 204 194 173 201 220 217 212 231 213 254 288 274 318 305 308 305 301 293 290 287
207 204 210 210 208 216 223 225 200 208 207 198 191 189 200 214 186 197 174 198 185 189 210 138 208 163 202 220 225 234 231 221 250 292 323 314 301 310 298 306 299 293 288
203 203 206 205 205 214 218 212 187 207 212 190 188 193 206 209 198 183 152 184 166 208 191 207 183 150 196 225 230 262 265 260 269 275 315 293 304 302 313 306 304 300 299
199 200 204 206 208 212 211 199 198 211 201 201 204 207 203 208 216 156 172 175 162 186 213 186 185 190 196 203 200 263 315 319 305 322 301 304 297 318 307 315 322 320 320
194 201 208 210 209 206 201 197 206 200 204 210 215 196 212 148 188 159 166 159 159 157 82 87 112 143 131 142 129 302 310 309 324 323 317 307 321 326 334 321 306 319 329
195 203 203 200 195 198 196 198 196 194 196 213 199 158 119 160 156 115 139 143 142 100 105 114 100 101 93 81 77 76 58 329 337 323 308 321 305 318 315 310 307 331 333
195 200 199 194 198 201 197 194 191 191 187 196 136 121 133 133 135 132 109 107 110 128 156 132 111 96 90 102 55 38 16 10 10 303 296 315 306 322 309 314 322 321 320
197 194 186 182 188 180 181 189 195 187 178 134 125 143 129 128 108 103 108 126 119 112 128 121 112 111 120 100 51 23 359 354 356 341 290 290 279 289 288 298 300 301 305
192 182 157 158 163 168 183 191 166 145 120 123 139 129 116 104 119 130 121 110 104 97 97 102 113 120 114 87 53 18 360 355 339 332 331 322 331 328 332 329 359 339 342
153 156 159 161 164 172 166 167 107 117 120 118 110 101 112 118 127 119 116 114 106 106 84 87 119 118 103 75 64 25 2 351 343 345 352 350 347 333 346 4 343 351 345
153 146 145 146 143 136 115 119 120 114 105 106 102 98 105 119 126 121 120 123 128 122 115 118 101 94 96 85 59 28 357 324 343 358 0 1 353 347 349 356 1 353 357
98 107 124 128 120 116 115 116 113 114 110 112 113 100 78 90 103 120 112 109 116 121 131 121 106 101 90 69 48 21 18 9 8 11 14 5 356 346 344 347 357 356 17
97 101 101 95 104 122 123 116 109 109 122 123 119 114 103 95 89 97 109 114 111 104 117 122 118 102 78 61 42 25 16 13 12 18 10 357 342 315 332 2 12 5 23
117 106 98 97 87 78 84 100 112 121 125 122 124 120 120 107 106 107 109 107 96 96 101 101 101 88 75 55 39 28 19 15 18 7 357 340 346 360 12 5 13 2 26
94 91 86 83 88 84 62 49 89 70 143 139 137 140 139 150 174 139 137 133 124 124 117 99 84 69 62 50 36 25 12 22 20 3 7 10 14 13 15 6 26 24 44
107 104 106 107 103 105 105 83 44 45 75 89 122 141 106 115 125 131 125 121 125 135 83 108 101 87 79 69 37 23 26 12 10 3 15 19 19 21 24 24 31 42 43
124 124 116 114 116 115 115 118 110 58 66 58 70 107 128 138 129 125 118 112 119 103 104 108 108 105 104 70 47 43 25 1 348 20 20 19 20 30 30 33 35 45 51
112 108 118 122 118 121 126 125 132 133 127 100 40 62 113 120 122 128 123 104 89 66 105 118 113 114 111 87 89 44 40 20 24 19 22 25 24 33 38 36 43 57 60
128 120 123 119 112 118 121 115 110 113 115 119 117 74 82 101 111 114 99 122 132 126 118 110 118 126 110 111 102 75 56 39 25 21 20 25 28 35 49 40 60 53 69
115 117 117 122 125 124 123 120 118 120 125 133 129 136 146 132 139 130 110 129 127 124 123 121 119 107 115 119 106 80 70 46 31 31 26 23 25 40 57 64 63 77 70
131 133 129 125 134 138 135 135 134 131 133 133 135 146 152 144 141 139 141 142 137 132 133 128 125 120 114 119 123 110 101 72 44 30 26 28 25 41 56 70 77 83 95
133 141 143 140 135 133 134 135 137 135 138 136 135 123 127 127 141 138 139 135 129 129 130 131 126 125 128 135 143 129 115 85 57 42 47 34 39 51 75 85 85 85 90
139 139 133 134 134 127 132 140 139 140 139 141 147 144 145 144 142 141 138 133 131 126 130 127 123 116 98 96 107 128 127 108 65 28 47 53 51 61 86 93 94 90 88
146 146 142 139 143 145 146 147 144 142 145 150 155 151 151 149 143 139 134 133 131 129 129 123 127 132 129 113 113 109 98 113 243 76 57 72 78 87 96 92 89 97 96
153 152 152 151 153 153 148 156 157 157 159 159 159 153 151 148 144 142 136 141 136 136 131 134 134 137 145 144 142 129 84 335 245 274 96 98 100 103 105 101 101 95 99
165 168 166 160 155 154 157 163 171 162 163 160 159 157 159 156 153 144 141 147 141 133 137 137 145 150 150 155 139 81 66 76 164 200 100 117 121 118 114 110 110 106 106